When you browse on this site, cookies collect data to enhance your experience and personalize the content and advertising you see.
Visit our Privacy Policy to learn more. By continuing to use the site, you agree to this use of cookies and data.
  • In Lithuania
  • List of Countries
  • For 7 days
  • Water Temperature
  • Weather Map
  • Weather Widgets
  • user-avatar
    Login

    Hourly Weather Mingachevir

    Today, 20 September, Friday

    Time Temperature Precipitation Wind Pressure Humidity
    00:00 +22°C° 0 mm 5 mps 754 mmHg 79%
    01:00 +22°C° 0 mm 5 mps 754 mmHg 79%
    02:00 +22°C° 0 mm 4 mps 754 mmHg 79%
    03:00 +21°C° 0 mm 4 mps 754 mmHg 80%
    04:00 +21°C° 0 mm 4 mps 754 mmHg 80%
    05:00 +21°C° 0 mm 3 mps 754 mmHg 79%
    06:00 +21°C° 0 mm 3 mps 754 mmHg 79%
    07:00 +22°C° 0 mm 3 mps 753 mmHg 75%
    08:00 +24°C° 0 mm 3 mps 753 mmHg 71%
    09:00 +24°C° 0 mm 3 mps 753 mmHg 68%
    10:00 +25°C° 0 mm 3 mps 753 mmHg 63%
    11:00 +27°C° 0 mm 3 mps 752 mmHg 59%
    12:00 +28°C° 0 mm 3 mps 751 mmHg 54%
    13:00 +28°C° 0 mm 3 mps 751 mmHg 51%
    14:00 +29°C° 0 mm 2 mps 750 mmHg 48%
    15:00 +29°C° 0 mm 2 mps 749 mmHg 46%
    16:00 +28°C° 0 mm 2 mps 749 mmHg 48%
    17:00 +27°C° 0 mm 2 mps 749 mmHg 51%
    18:00 +26°C° 0 mm 2 mps 749 mmHg 54%
    19:00 +26°C° 0 mm 2 mps 748 mmHg 57%
    20:00 +25°C° 0 mm 2 mps 748 mmHg 60%
    21:00 +24°C° 0 mm 2 mps 748 mmHg 63%
    22:00 +24°C° 0 mm 2 mps 748 mmHg 65%
    23:00 +23°C° 0 mm 1 mps 747 mmHg 68%

    Tomorrow, 21 September, Saturday

    Time Temperature Precipitation Wind Pressure Humidity
    00:00 +23°C° 0 mm 1 mps 747 mmHg 70%
    01:00 +20°C° 0 mm 0 mps 746 mmHg 73%
    02:00 +20°C° 0 mm 0 mps 746 mmHg 76%
    03:00 +19°C° 0 mm 0 mps 745 mmHg 79%
    04:00 +20°C° 0 mm 2 mps 745 mmHg 77%
    05:00 +21°C° 0 mm 3 mps 745 mmHg 76%
    06:00 +21°C° 0 mm 5 mps 745 mmHg 74%
    07:00 +23°C° 0 mm 6 mps 745 mmHg 64%
    08:00 +26°C° 0 mm 7 mps 745 mmHg 54%
    09:00 +29°C° 0 mm 8 mps 745 mmHg 44%
    10:00 +31°C° 0 mm 8 mps 745 mmHg 40%
    11:00 +32°C° 0 mm 8 mps 745 mmHg 37%
    12:00 +33°C° 0 mm 8 mps 744 mmHg 33%
    13:00 +33°C° 0 mm 9 mps 744 mmHg 32%
    14:00 +33°C° 0 mm 10 mps 744 mmHg 31%
    15:00 +33°C° 0 mm 10 mps 743 mmHg 31%
    16:00 +29°C° 0 mm 11 mps 744 mmHg 33%
    17:00 +27°C° 0 mm 13 mps 745 mmHg 35%
    18:00 +23°C° 0 mm 14 mps 746 mmHg 37%
    19:00 +22°C° 0 mm 13 mps 747 mmHg 38%
    20:00 +22°C° 0 mm 13 mps 748 mmHg 39%
    21:00 +21°C° 0 mm 12 mps 749 mmHg 40%
    22:00 +21°C° 0 mm 11 mps 750 mmHg 39%
    23:00 +19°C° 0 mm 11 mps 750 mmHg 38%

    Day after tomorrow, 22 September, Sunday

    Time Temperature Precipitation Wind Pressure Humidity
    00:00 +19°C° 0 mm 10 mps 751 mmHg 37%
    01:00 +18°C° 0 mm 10 mps 751 mmHg 37%
    02:00 +18°C° 0 mm 10 mps 752 mmHg 37%
    03:00 +18°C° 0 mm 11 mps 752 mmHg 37%
    04:00 +18°C° 0 mm 10 mps 753 mmHg 37%
    05:00 +17°C° 0 mm 10 mps 754 mmHg 38%
    06:00 +17°C° 0 mm 9 mps 755 mmHg 38%
    07:00 +17°C° 0 mm 9 mps 755 mmHg 38%
    08:00 +18°C° 0 mm 8 mps 756 mmHg 37%
    09:00 +18°C° 0 mm 7 mps 756 mmHg 36%
    10:00 +21°C° 0 mm 7 mps 756 mmHg 33%
    11:00 +22°C° 0 mm 6 mps 756 mmHg 30%
    12:00 +23°C° 0 mm 5 mps 756 mmHg 26%
    13:00 +25°C° 0 mm 4 mps 756 mmHg 25%
    14:00 +25°C° 0 mm 3 mps 756 mmHg 24%
    15:00 +25°C° 0 mm 3 mps 755 mmHg 23%
    16:00 +24°C° 0 mm 2 mps 755 mmHg 26%
    17:00 +23°C° 0 mm 2 mps 755 mmHg 28%
    18:00 +21°C° 0 mm 1 mps 756 mmHg 30%
    19:00 +19°C° 0 mm 2 mps 756 mmHg 39%
    20:00 +18°C° 0 mm 4 mps 756 mmHg 48%
    21:00 +16°C° 0 mm 5 mps 757 mmHg 57%
    22:00 +17°C° 0 mm 4 mps 757 mmHg 62%
    23:00 +16°C° 0 mm 3 mps 756 mmHg 68%

    23 September, Monday

    Time Temperature Precipitation Wind Pressure Humidity
    00:00 +15°C° 0 mm 1 mps 756 mmHg 73%
    01:00 +15°C° 0 mm 1 mps 756 mmHg 73%
    02:00 +14°C° 0 mm 1 mps 756 mmHg 73%
    03:00 +13°C° 0 mm 0 mps 756 mmHg 73%
    04:00 +13°C° 0 mm 0 mps 755 mmHg 73%
    05:00 +14°C° 0 mm 1 mps 755 mmHg 73%
    06:00 +14°C° 0 mm 1 mps 755 mmHg 73%
    07:00 +16°C° 0 mm 1 mps 755 mmHg 65%
    08:00 +17°C° 0 mm 2 mps 755 mmHg 57%
    09:00 +19°C° 0 mm 2 mps 755 mmHg 49%
    10:00 +21°C° 0 mm 2 mps 754 mmHg 45%
    11:00 +23°C° 0 mm 2 mps 754 mmHg 40%
    12:00 +24°C° 0 mm 2 mps 753 mmHg 36%
    13:00 +25°C° 0 mm 2 mps 753 mmHg 34%
    14:00 +25°C° 0 mm 1 mps 752 mmHg 33%
    15:00 +26°C° 0 mm 1 mps 752 mmHg 31%
    16:00 +25°C° 0 mm 1 mps 752 mmHg 34%
    17:00 +24°C° 0 mm 1 mps 752 mmHg 37%
    18:00 +22°C° 0 mm 1 mps 752 mmHg 40%
    19:00 +22°C° 0 mm 1 mps 753 mmHg 45%
    20:00 +20°C° 0 mm 2 mps 754 mmHg 49%
    21:00 +19°C° 0 mm 2 mps 754 mmHg 54%
    22:00 +19°C° 0 mm 3 mps 754 mmHg 61%
    23:00 +19°C° 0 mm 3 mps 754 mmHg 68%

    24 September, Tuesday

    Time Temperature Precipitation Wind Pressure Humidity
    00:00 +19°C° 0 mm 3 mps 754 mmHg 75%
    01:00 +19°C° 0.1 mm 3 mps 754 mmHg 75%
    02:00 +18°C° 0.1 mm 3 mps 755 mmHg 76%
    03:00 +18°C° 0.1 mm 3 mps 755 mmHg 76%
    04:00 +18°C° 0 mm 2 mps 755 mmHg 77%
    05:00 +18°C° 0 mm 2 mps 755 mmHg 77%
    06:00 +18°C° 0 mm 2 mps 755 mmHg 78%
    07:00 +18°C° 0 mm 2 mps 755 mmHg 76%
    08:00 +19°C° 0 mm 2 mps 755 mmHg 74%
    09:00 +19°C° 0 mm 2 mps 755 mmHg 73%
    10:00 +20°C° 0 mm 2 mps 755 mmHg 68%
    11:00 +21°C° 0 mm 3 mps 754 mmHg 63%
    12:00 +22°C° 0 mm 3 mps 754 mmHg 58%
    13:00 +24°C° 0 mm 3 mps 754 mmHg 55%
    14:00 +25°C° 0 mm 2 mps 753 mmHg 52%
    15:00 +26°C° 0 mm 2 mps 753 mmHg 49%
    16:00 +25°C° 0 mm 2 mps 753 mmHg 53%
    17:00 +23°C° 0 mm 1 mps 753 mmHg 56%
    18:00 +22°C° 0 mm 1 mps 752 mmHg 59%
    19:00 +22°C° 0 mm 1 mps 753 mmHg 62%
    20:00 +21°C° 0 mm 1 mps 753 mmHg 65%
    21:00 +21°C° 0 mm 1 mps 753 mmHg 67%
    22:00 +20°C° 0 mm 1 mps 753 mmHg 69%
    23:00 +18°C° 0 mm 0 mps 753 mmHg 70%

    25 September, Wednesday

    Time Temperature Precipitation Wind Pressure Humidity
    00:00 +18°C° 0 mm 0 mps 753 mmHg 72%
    01:00 +17°C° 0 mm 0 mps 752 mmHg 73%
    02:00 +17°C° 0 mm 0 mps 752 mmHg 74%
    03:00 +17°C° 0 mm 0 mps 752 mmHg 75%
    04:00 +19°C° 0 mm 1 mps 752 mmHg 76%
    05:00 +18°C° 0 mm 1 mps 752 mmHg 76%
    06:00 +18°C° 0 mm 1 mps 751 mmHg 77%
    07:00 +20°C° 0 mm 1 mps 751 mmHg 70%
    08:00 +21°C° 0 mm 2 mps 751 mmHg 63%
    09:00 +24°C° 0 mm 2 mps 751 mmHg 55%
    10:00 +25°C° 0 mm 2 mps 751 mmHg 51%
    11:00 +27°C° 0 mm 2 mps 750 mmHg 47%
    12:00 +28°C° 0 mm 1 mps 750 mmHg 43%
    13:00 +29°C° 0 mm 1 mps 749 mmHg 40%
    14:00 +29°C° 0 mm 1 mps 749 mmHg 38%
    15:00 +30°C° 0 mm 1 mps 748 mmHg 35%
    16:00 +29°C° 0 mm 1 mps 748 mmHg 39%
    17:00 +27°C° 0 mm 1 mps 748 mmHg 42%
    18:00 +26°C° 0 mm 1 mps 748 mmHg 45%
    19:00 +25°C° 0 mm 1 mps 748 mmHg 47%
    20:00 +25°C° 0 mm 1 mps 749 mmHg 49%
    21:00 +24°C° 0 mm 1 mps 749 mmHg 51%
    22:00 +23°C° 0 mm 1 mps 749 mmHg 55%
    23:00 +23°C° 0 mm 2 mps 748 mmHg 58%
    Show more